| time (UTC) | temp F | wind direction | speed MPH | gust MPH | rain 1hr in | rain 24hr in | rain mn in | humidity % | barometer mb |
| 20260509153131 | 61 | 319 | 0.0 | 0.0 | 0.00 | 0.00 | 0.00 | 91 | 1032.6 |
| 20260509152131 | 61 | 333 | 0.0 | 0.0 | 0.00 | 0.00 | 0.00 | 91 | 1032.8 |
| 20260509151130 | 61 | 334 | 0.0 | 0.0 | 0.00 | 0.00 | 0.00 | 91 | 1032.7 |
| 20260509150130 | 61 | 337 | 0.0 | 0.0 | 0.00 | 0.00 | 0.00 | 91 | 1032.7 |
| 20260509145132 | 61 | 337 | 0.0 | 0.0 | 0.00 | 0.00 | 0.00 | 90 | 1032.7 |
| 20260509144130 | 60 | 337 | 0.0 | 0.0 | 0.00 | 0.00 | 0.00 | 91 | 1032.7 |
| 20260509141233 | 60 | 337 | 0.0 | 0.0 | 0.00 | 0.00 | 0.00 | 91 | 1032.5 |
| 20260509140230 | 60 | 250 | 0.0 | 0.0 | 0.00 | 0.00 | 0.00 | 92 | 1032.4 |
| 20260509135231 | 60 | 337 | 0.0 | 0.0 | 0.00 | 0.00 | 0.00 | 91 | 1032.5 |
| 20260509134330 | 60 | 337 | 0.0 | 0.0 | 0.00 | 0.00 | 0.00 | 91 | 1032.6 |
| 20260509133330 | 60 | 331 | 0.0 | 0.0 | 0.00 | 0.00 | 0.00 | 91 | 1032.4 |
| 20260509132331 | 60 | 333 | 0.0 | 0.0 | 0.00 | 0.00 | 0.00 | 92 | 1032.3 |
| 20260509131331 | 60 | 333 | 0.0 | 0.0 | 0.00 | 0.00 | 0.00 | 92 | 1032.4 |
| 20260509130430 | 60 | 335 | 0.0 | 0.0 | 0.00 | 0.00 | 0.00 | 92 | 1032.2 |
| 20260509125430 | 60 | 334 | 0.0 | 0.0 | 0.00 | 0.00 | 0.00 | 91 | 1032.3 |
| 20260509124430 | 60 | 336 | 0.0 | 0.0 | 0.00 | 0.00 | 0.00 | 92 | 1032.2 |
| 20260509123529 | 60 | 337 | 0.0 | 0.0 | 0.00 | 0.00 | 0.00 | 92 | 1032.1 |
| 20260509122530 | 61 | 334 | 0.0 | 0.0 | 0.00 | 0.00 | 0.00 | 92 | 1032.0 |
| 20260509121532 | 61 | 337 | 0.0 | 0.0 | 0.00 | 0.00 | 0.00 | 92 | 1032.0 |
| 20260509120530 | 61 | 335 | 0.0 | 0.0 | 0.00 | 0.00 | 0.00 | 92 | 1032.0 |
| 20260509115531 | 61 | 335 | 0.0 | 0.0 | 0.00 | 0.00 | 0.00 | 91 | 1032.1 |
| 20260509114531 | 61 | 337 | 0.0 | 0.0 | 0.00 | 0.00 | 0.00 | 91 | 1032.1 |
| 20260509112530 | 61 | 182 | 0.0 | 0.0 | 0.00 | 0.00 | 0.00 | 91 | 1032.1 |
| 20260509111532 | 61 | 180 | 0.0 | 0.0 | 0.00 | 0.00 | 0.00 | 91 | 1032.2 |
| 20260509110531 | 61 | 180 | 0.0 | 0.0 | 0.00 | 0.00 | 0.00 | 91 | 1032.2 |
| 20260509105532 | 61 | 337 | 0.0 | 0.0 | 0.00 | 0.00 | 0.00 | 91 | 1032.2 |
| 20260509104531 | 61 | 180 | 0.0 | 0.0 | 0.00 | 0.00 | 0.00 | 91 | 1032.0 |
| 20260509103530 | 61 | 180 | 0.0 | 0.0 | 0.00 | 0.00 | 0.00 | 91 | 1032.1 |
| 20260509102531 | 61 | 180 | 0.0 | 0.0 | 0.00 | 0.00 | 0.00 | 91 | 1032.5 |
| 20260509101630 | 61 | 337 | 0.0 | 0.0 | 0.00 | 0.00 | 0.00 | 91 | 1032.4 |
| 20260509100632 | 61 | 200 | 0.0 | 0.0 | 0.00 | 0.00 | 0.00 | 91 | 1032.3 |
| 20260509093830 | 61 | 323 | 0.0 | 0.0 | 0.00 | 0.00 | 0.00 | 90 | 1032.5 |
| 20260509092929 | 61 | 337 | 0.0 | 0.0 | 0.00 | 0.00 | 0.00 | 90 | 1032.5 |
| 20260509091929 | 61 | 180 | 0.0 | 0.0 | 0.00 | 0.00 | 0.00 | 91 | 1032.4 |
| 20260509090931 | 61 | 337 | 0.0 | 0.0 | 0.00 | 0.00 | 0.00 | 91 | 1032.5 |
| 20260509085931 | 61 | 336 | 0.0 | 0.0 | 0.00 | 0.00 | 0.00 | 90 | 1032.7 |
| 20260509084930 | 61 | 337 | 0.0 | 0.0 | 0.00 | 0.00 | 0.00 | 90 | 1032.8 |
| 20260509083929 | 61 | 337 | 0.0 | 0.0 | 0.00 | 0.00 | 0.00 | 91 | 1032.8 |
| 20260509082931 | 61 | 337 | 0.0 | 0.0 | 0.00 | 0.00 | 0.00 | 90 | 1032.9 |
| 20260509080030 | 61 | 337 | 0.0 | 0.0 | 0.00 | 0.00 | 0.00 | 91 | 1033.1 |
| 20260509075031 | 61 | 337 | 0.0 | 0.0 | 0.00 | 0.00 | 0.00 | 90 | 1033.1 |
| 20260509072129 | 61 | 336 | 0.0 | 0.0 | 0.00 | 0.00 | 0.00 | 91 | 1033.1 |
| 20260509071130 | 61 | 337 | 0.0 | 0.0 | 0.00 | 0.00 | 0.00 | 91 | 1033.3 |
| 20260509070229 | 61 | 325 | 0.0 | 0.0 | 0.00 | 0.00 | 0.00 | 91 | 1033.5 |
| 20260509065321 | 61 | 337 | 0.0 | 0.0 | 0.00 | 0.00 | 0.00 | 90 | 1033.5 |
| 20260509063420 | 61 | 315 | 0.0 | 0.0 | 0.00 | 0.00 | 0.00 | 89 | 1033.6 |
| 20260509062420 | 61 | 336 | 0.0 | 0.0 | 0.00 | 0.00 | 0.00 | 90 | 1033.4 |
| 20260509060419 | 62 | 336 | 0.0 | 0.0 | 0.00 | 0.00 | 0.00 | 90 | 1033.6 |
| 20260509055518 | 62 | 315 | 0.0 | 0.0 | 0.00 | 0.00 | 0.00 | 90 | 1033.5 |
| 20260509054519 | 62 | 336 | 0.0 | 0.0 | 0.00 | 0.00 | 0.00 | 90 | 1033.5 |
| 20260509052519 | 62 | 335 | 0.0 | 0.0 | 0.00 | 0.00 | 0.00 | 90 | 1033.7 |
| 20260509051518 | 62 | 316 | 0.0 | 0.0 | 0.00 | 0.00 | 0.00 | 89 | 1033.6 |
| 20260509045618 | 62 | 315 | 0.0 | 0.0 | 0.00 | 0.00 | 0.00 | 89 | 1033.8 |
| 20260509044619 | 62 | 315 | 0.0 | 0.0 | 0.00 | 0.00 | 0.00 | 89 | 1033.6 |
| 20260509043619 | 62 | 358 | 0.0 | 0.0 | 0.00 | 0.00 | 0.00 | 89 | 1033.5 |
| 20260509042619 | 62 | 336 | 0.0 | 0.0 | 0.00 | 0.00 | 0.00 | 89 | 1033.6 |
| 20260509034717 | 62 | 315 | 0.0 | 0.0 | 0.00 | 0.00 | 0.00 | 88 | 1033.4 |
| 20260509033722 | 62 | 325 | 0.0 | 0.0 | 0.00 | 0.00 | 0.00 | 89 | 1033.2 |
| 20260509032819 | 62 | 337 | 0.0 | 0.0 | 0.00 | 0.00 | 0.00 | 88 | 1033.1 |
| 20260509031818 | 62 | 315 | 0.0 | 0.0 | 0.00 | 0.00 | 0.00 | 89 | 1033.0 |
| 20260509025820 | 62 | 336 | 0.0 | 0.0 | 0.00 | 0.00 | 0.00 | 89 | 1033.1 |
| 20260509024819 | 62 | 337 | 0.0 | 0.0 | 0.00 | 0.00 | 0.00 | 88 | 1032.9 |
| 20260509022819 | 63 | 326 | 0.0 | 0.0 | 0.00 | 0.00 | 0.00 | 88 | 1032.8 |
| 20260509021821 | 63 | 318 | 0.0 | 0.0 | 0.00 | 0.00 | 0.00 | 87 | 1032.7 |
| 20260509015821 | 63 | 315 | 0.0 | 0.0 | 0.00 | 0.00 | 0.00 | 87 | 1032.6 |
| 20260509014819 | 63 | 326 | 0.0 | 0.0 | 0.00 | 0.00 | 0.00 | 87 | 1032.4 |
| 20260509013819 | 64 | 315 | 0.0 | 0.0 | 0.00 | 0.00 | 0.00 | 87 | 1032.5 |
| 20260509012819 | 64 | 320 | 0.0 | 0.0 | 0.00 | 0.00 | 0.00 | 85 | 1032.6 |
| 20260509011819 | 65 | 340 | 0.0 | 0.0 | 0.00 | 0.00 | 0.00 | 87 | 1032.5 |
| 20260509010819 | 65 | 324 | 0.0 | 0.0 | 0.00 | 0.00 | 0.00 | 86 | 1032.3 |
| 20260509005819 | 65 | 321 | 0.0 | 0.0 | 0.00 | 0.00 | 0.00 | 84 | 1032.4 |
| 20260509003919 | 66 | 321 | 0.0 | 0.0 | 0.00 | 0.00 | 0.00 | 86 | 1032.3 |
| 20260509003018 | 66 | 320 | 0.0 | 0.0 | 0.00 | 0.00 | 0.00 | 84 | 1032.3 |
| 20260509001119 | 68 | 335 | 0.0 | 0.0 | 0.00 | 0.00 | 0.00 | 82 | 1032.2 |
| 20260509000119 | 68 | 316 | 0.0 | 0.0 | 0.00 | 0.00 | 0.00 | 82 | 1032.4 |
| 20260508235120 | 69 | 321 | 0.0 | 0.0 | 0.00 | 0.00 | 0.00 | 81 | 1032.4 |
| 20260508234218 | 69 | 324 | 0.0 | 0.0 | 0.00 | 0.00 | 0.00 | 82 | 1032.5 |
| 20260508233219 | 69 | 322 | 0.0 | 0.0 | 0.00 | 0.00 | 0.00 | 82 | 1032.4 |
| 20260508232221 | 68 | 324 | 0.0 | 0.0 | 0.00 | 0.00 | 0.00 | 82 | 1032.7 |
| 20260508231219 | 68 | 321 | 0.0 | 0.0 | 0.00 | 0.00 | 0.00 | 82 | 1032.8 |
| 20260508230220 | 68 | 322 | 0.0 | 0.0 | 0.00 | 0.00 | 0.00 | 84 | 1032.7 |
| 20260508225219 | 68 | 329 | 0.0 | 0.0 | 0.00 | 0.00 | 0.00 | 83 | 1032.6 |
| 20260508224218 | 68 | 318 | 0.0 | 0.0 | 0.00 | 0.00 | 0.00 | 83 | 1033.0 |
| 20260508223221 | 68 | 323 | 0.0 | 0.0 | 0.00 | 0.00 | 0.00 | 83 | 1032.9 |
| 20260508222220 | 68 | 319 | 0.0 | 0.0 | 0.00 | 0.00 | 0.00 | 83 | 1033.0 |
| 20260508221220 | 69 | 321 | 0.0 | 0.0 | 0.00 | 0.00 | 0.00 | 83 | 1033.1 |
| 20260508220219 | 69 | 321 | 0.0 | 0.0 | 0.00 | 0.00 | 0.00 | 83 | 1033.2 |
| 20260508215221 | 69 | 322 | 0.0 | 0.0 | 0.00 | 0.00 | 0.00 | 84 | 1033.2 |
| 20260508214219 | 68 | 321 | 0.0 | 0.0 | 0.00 | 0.00 | 0.00 | 85 | 1033.3 |
| 20260508212219 | 68 | 324 | 0.0 | 0.0 | 0.00 | 0.00 | 0.00 | 85 | 1033.3 |
| 20260508211219 | 68 | 316 | 0.0 | 0.0 | 0.00 | 0.00 | 0.00 | 86 | 1033.5 |
| 20260508210218 | 68 | 323 | 0.0 | 0.0 | 0.00 | 0.00 | 0.00 | 85 | 1033.5 |
| 20260508205219 | 68 | 318 | 0.0 | 0.0 | 0.00 | 0.00 | 0.00 | 84 | 1033.4 |
| 20260508204220 | 68 | 318 | 0.0 | 0.0 | 0.00 | 0.00 | 0.00 | 85 | 1033.6 |
| 20260508203318 | 68 | 319 | 0.0 | 0.0 | 0.00 | 0.00 | 0.00 | 85 | 1033.4 |
| 20260508202320 | 68 | 317 | 0.0 | 0.0 | 0.00 | 0.00 | 0.00 | 85 | 1033.5 |
| 20260508201320 | 69 | 313 | 0.0 | 0.0 | 0.00 | 0.00 | 0.00 | 86 | 1033.5 |
| 20260508195319 | 68 | 316 | 0.0 | 0.0 | 0.00 | 0.00 | 0.00 | 86 | 1033.7 |
| 20260508194322 | 68 | 227 | 0.0 | 0.0 | 0.00 | 0.00 | 0.00 | 85 | 1033.9 |
| 20260508192418 | 68 | 310 | 0.0 | 0.0 | 0.00 | 0.00 | 0.00 | 85 | 1034.2 |
| 20260508191518 | 68 | 310 | 0.0 | 0.0 | 0.00 | 0.00 | 0.00 | 85 | 1034.3 |
| 20260508190520 | 68 | 313 | 0.0 | 0.0 | 0.00 | 0.00 | 0.00 | 85 | 1034.4 |
| 20260508185520 | 66 | 318 | 0.0 | 0.0 | 0.00 | 0.00 | 0.00 | 86 | 1034.4 |
| 20260508184519 | 67 | 319 | 0.0 | 0.0 | 0.00 | 0.00 | 0.00 | 84 | 1034.5 |
| 20260508183617 | 67 | 311 | 0.0 | 0.0 | 0.00 | 0.00 | 0.00 | 83 | 1034.5 |
| 20260508182619 | 66 | 318 | 0.0 | 0.0 | 0.00 | 0.00 | 0.00 | 83 | 1034.6 |
| 20260508181619 | 66 | 329 | 0.0 | 0.0 | 0.00 | 0.00 | 0.00 | 84 | 1034.8 |
| 20260508180718 | 66 | 317 | 0.0 | 0.0 | 0.00 | 0.00 | 0.00 | 87 | 1034.7 |
| 20260508175722 | 65 | 330 | 0.0 | 0.0 | 0.00 | 0.00 | 0.00 | 88 | 1034.8 |
| 20260508174720 | 64 | 322 | 0.0 | 0.0 | 0.00 | 0.00 | 0.00 | 88 | 1034.9 |
| 20260508173719 | 64 | 323 | 0.0 | 0.0 | 0.00 | 0.00 | 0.00 | 88 | 1035.0 |
| 20260508172719 | 64 | 319 | 0.0 | 0.0 | 0.00 | 0.00 | 0.00 | 89 | 1035.1 |
| 20260508171720 | 63 | 320 | 0.0 | 0.0 | 0.00 | 0.00 | 0.00 | 88 | 1035.1 |
| 20260508170818 | 63 | 315 | 0.0 | 0.0 | 0.00 | 0.00 | 0.00 | 89 | 1035.2 |
| 20260508165821 | 63 | 315 | 0.0 | 0.0 | 0.00 | 0.00 | 0.00 | 88 | 1035.2 |
| 20260508163919 | 62 | 315 | 0.0 | 0.0 | 0.00 | 0.00 | 0.00 | 89 | 1035.1 |
| 20260508162919 | 62 | 332 | 0.0 | 0.0 | 0.00 | 0.00 | 0.00 | 89 | 1035.2 |
| 20260508161921 | 62 | 336 | 0.0 | 0.0 | 0.00 | 0.00 | 0.00 | 89 | 1035.3 |
| 20260508160919 | 62 | 329 | 0.0 | 0.0 | 0.00 | 0.00 | 0.00 | 89 | 1035.3 |
| 20260508160018 | 62 | 337 | 0.0 | 0.0 | 0.00 | 0.00 | 0.00 | 88 | 1035.3 |
| 20260508155021 | 62 | 315 | 0.0 | 0.0 | 0.00 | 0.00 | 0.00 | 88 | 1035.4 |